BAW48P EGLL-LGAV

Flight info

Callsign BAW48P
Flight time N/A
Altitude 39000
Route DET L6 DVR UL9 KONAN DCT KOK DCT SISGA DCT KOMOB DCT BANUX DCT BABEG DCT KUMOM DCT NIPEL DCT ABISO DCT NEMEK DCT ELTIB DCT PINDO DCT PIKOS UL607 XORKI
Aircraft B772/H-SDE2E3FGHIJ5LORVWXY/LB1D1

Departure

Time N/A
Airport London Heathrow Airport (EGLL)

Arrival

Time 2026-05-03 21:32
Airport Athens Eleftherios Venizelos International Airport (LGAV)
Time Latitude Longitude Altitude Speed Heading
2026-05-03 20:15 44.60307 16.46683 39140 ft 518 kts 138°
2026-05-03 20:15 44.54749 16.53208 39127 ft 520 kts 139°
2026-05-03 20:16 44.49193 16.59713 39132 ft 521 kts 139°
2026-05-03 20:16 44.43661 16.66174 39129 ft 522 kts 139°
2026-05-03 20:17 44.38075 16.72681 39128 ft 522 kts 138°
2026-05-03 20:17 44.32477 16.79189 39124 ft 523 kts 138°
2026-05-03 20:18 44.26898 16.85679 39122 ft 524 kts 138°
2026-05-03 20:18 44.21307 16.92232 39126 ft 524 kts 138°
2026-05-03 20:19 44.15750 16.98741 39139 ft 525 kts 137°
2026-05-03 20:19 44.10150 17.05278 39139 ft 525 kts 137°
2026-05-03 20:20 44.04538 17.11805 39152 ft 525 kts 137°
2026-05-03 20:20 43.98919 17.18321 39148 ft 526 kts 137°
2026-05-03 20:21 43.93302 17.24817 39161 ft 526 kts 137°
2026-05-03 20:21 43.87709 17.31273 39144 ft 526 kts 137°
2026-05-03 20:22 43.82079 17.37754 39150 ft 525 kts 137°
2026-05-03 20:22 43.76442 17.44228 39132 ft 526 kts 137°
2026-05-03 20:23 43.70831 17.50653 39138 ft 527 kts 137°
2026-05-03 20:23 43.65167 17.57124 39131 ft 527 kts 137°
2026-05-03 20:24 43.59510 17.63570 39150 ft 527 kts 137°
2026-05-03 20:24 43.56697 17.66768 39621 ft 518 kts 138°
2026-05-03 20:24 43.53961 17.69873 40025 ft 512 kts 138°
2026-05-03 20:24 43.51213 17.72992 40193 ft 512 kts 138°
2026-05-03 20:25 43.48450 17.76125 40262 ft 515 kts 138°
2026-05-03 20:25 43.42885 17.82424 40381 ft 520 kts 138°
2026-05-03 20:25 43.40086 17.85584 40515 ft 520 kts 138°
2026-05-03 20:26 43.37285 17.88743 40655 ft 520 kts 138°
2026-05-03 20:26 43.34491 17.91890 40782 ft 521 kts 138°
2026-05-03 20:26 43.31681 17.95050 40869 ft 522 kts 138°
2026-05-03 20:27 43.26048 18.01375 41042 ft 524 kts 138°
2026-05-03 20:27 43.20417 18.07682 41106 ft 526 kts 139°
2026-05-03 20:28 43.14728 18.14038 41116 ft 528 kts 139°
2026-05-03 20:28 43.09012 18.20409 41119 ft 529 kts 139°
2026-05-03 20:29 43.03328 18.26728 41129 ft 530 kts 139°
2026-05-03 20:29 42.97593 18.33088 41127 ft 530 kts 139°
2026-05-03 20:30 42.91862 18.39426 41126 ft 530 kts 139°
2026-05-03 20:30 42.86136 18.45745 41133 ft 529 kts 139°
2026-05-03 20:31 42.80424 18.52034 41124 ft 529 kts 139°
2026-05-03 20:31 42.74689 18.58331 41122 ft 528 kts 139°
2026-05-03 20:32 42.68958 18.64609 41123 ft 528 kts 139°
2026-05-03 20:32 42.63272 18.70823 41124 ft 527 kts 139°
2026-05-03 20:33 42.57560 18.77048 41079 ft 523 kts 139°
2026-05-03 20:33 42.51869 18.83238 41080 ft 520 kts 139°
2026-05-03 20:33 42.49063 18.86282 40947 ft 513 kts 139°
2026-05-03 20:34 42.46298 18.89278 40825 ft 507 kts 139°
2026-05-03 20:34 42.43549 18.92254 40689 ft 505 kts 139°
2026-05-03 20:34 42.40787 18.95243 40577 ft 507 kts 139°
2026-05-03 20:34 42.38021 18.98234 40461 ft 508 kts 139°
2026-05-03 20:35 42.35253 19.01223 40348 ft 509 kts 139°
2026-05-03 20:35 42.32517 19.04173 40245 ft 509 kts 139°
2026-05-03 20:35 42.29742 19.07162 40120 ft 509 kts 139°
2026-05-03 20:35 42.26969 19.10143 40009 ft 509 kts 139°
2026-05-03 20:36 42.24196 19.13122 39899 ft 508 kts 139°
2026-05-03 20:36 42.21429 19.16090 39796 ft 507 kts 139°
2026-05-03 20:36 42.18664 19.19054 39659 ft 506 kts 138°
2026-05-03 20:36 42.15913 19.21999 39548 ft 505 kts 138°
2026-05-03 20:37 42.13194 19.24906 39447 ft 504 kts 138°
2026-05-03 20:37 42.10433 19.27855 39314 ft 503 kts 138°
2026-05-03 20:37 42.07683 19.30790 39223 ft 501 kts 138°
2026-05-03 20:38 42.02273 19.36549 39130 ft 497 kts 138°
2026-05-03 20:38 41.96831 19.42334 39125 ft 499 kts 138°
2026-05-03 20:39 41.91379 19.48118 39125 ft 500 kts 138°
2026-05-03 20:39 41.85931 19.53883 39133 ft 501 kts 138°
2026-05-03 20:40 41.80436 19.59683 39110 ft 501 kts 138°
2026-05-03 20:40 41.74944 19.65466 39114 ft 501 kts 138°
2026-05-03 20:41 41.69495 19.71192 39123 ft 501 kts 138°
2026-05-03 20:41 41.64002 19.76953 39122 ft 501 kts 138°
2026-05-03 20:42 41.58494 19.82715 39140 ft 502 kts 139°
2026-05-03 20:42 41.53023 19.88432 39131 ft 502 kts 139°
2026-05-03 20:43 41.47528 19.94158 39133 ft 501 kts 139°
2026-05-03 20:43 41.42011 19.99882 39140 ft 502 kts 139°
2026-05-03 20:44 41.36478 20.05620 39140 ft 504 kts 139°
2026-05-03 20:44 41.30958 20.11333 39153 ft 505 kts 139°
2026-05-03 20:45 41.25400 20.17074 39163 ft 504 kts 139°
2026-05-03 20:45 41.19826 20.22816 39152 ft 513 kts 139°
2026-05-03 20:46 41.14159 20.28644 39152 ft 522 kts 139°
2026-05-03 20:46 41.08343 20.34611 39162 ft 532 kts 139°
2026-05-03 20:47 41.02444 20.40645 39150 ft 535 kts 140°
2026-05-03 20:47 40.96570 20.46638 39149 ft 537 kts 140°
2026-05-03 20:48 40.90673 20.52639 39150 ft 529 kts 140°
2026-05-03 20:48 40.84849 20.58556 39148 ft 527 kts 140°
2026-05-03 20:49 40.79061 20.64426 39153 ft 527 kts 140°
2026-05-03 20:49 40.73228 20.70327 39150 ft 528 kts 140°
2026-05-03 20:50 40.67388 20.76223 39155 ft 529 kts 140°
2026-05-03 20:50 40.61535 20.82116 39191 ft 530 kts 140°
2026-05-03 20:51 40.56653 20.87023 39170 ft 531 kts 140°
2026-05-03 20:51 40.49806 20.93891 39178 ft 532 kts 140°
2026-05-03 20:52 40.45051 20.99004 39185 ft 530 kts 136°
2026-05-03 20:52 40.39514 21.05435 39185 ft 531 kts 135°
2026-05-03 20:53 40.34010 21.11834 39202 ft 531 kts 136°
2026-05-03 20:53 40.28451 21.18235 39203 ft 531 kts 136°
2026-05-03 20:54 40.22888 21.24607 39195 ft 530 kts 136°
2026-05-03 20:54 40.14583 21.34095 39193 ft 530 kts 136°
2026-05-03 20:55 40.09031 21.40423 39192 ft 530 kts 136°
2026-05-03 20:55 40.03464 21.46756 39198 ft 530 kts 136°
2026-05-03 20:56 39.97895 21.53078 39198 ft 530 kts 136°
2026-05-03 20:56 39.92356 21.59344 39194 ft 530 kts 136°
2026-05-03 20:57 39.86770 21.65645 39198 ft 530 kts 136°
2026-05-03 20:57 39.81206 21.71910 39198 ft 531 kts 136°
2026-05-03 20:58 39.75613 21.78196 39191 ft 531 kts 136°
2026-05-03 20:58 39.70006 21.84484 39194 ft 532 kts 136°
2026-05-03 20:59 39.64388 21.90770 39186 ft 533 kts 136°
2026-05-03 20:59 39.58791 21.97019 39188 ft 533 kts 136°
2026-05-03 21:00 39.54108 22.02234 39187 ft 533 kts 137°
2026-05-03 21:00 39.47545 22.09531 39187 ft 534 kts 137°
2026-05-03 21:01 39.41880 22.15814 39196 ft 534 kts 137°
2026-05-03 21:01 39.36234 22.22063 39181 ft 533 kts 137°
2026-05-03 21:02 39.30616 22.28266 39188 ft 533 kts 137°
2026-05-03 21:02 39.24972 22.34483 39194 ft 532 kts 137°
2026-05-03 21:03 39.19330 22.40686 39188 ft 532 kts 137°
2026-05-03 21:03 39.13690 22.46872 39223 ft 532 kts 137°
2026-05-03 21:04 39.08091 22.53002 39175 ft 531 kts 138°
2026-05-03 21:04 39.02449 22.59163 39177 ft 530 kts 138°
2026-05-03 21:05 38.96842 22.65272 39147 ft 522 kts 138°
2026-05-03 21:05 38.94082 22.68274 38990 ft 519 kts 138°
2026-05-03 21:05 38.91323 22.71272 38698 ft 518 kts 138°
2026-05-03 21:06 38.88593 22.74237 38233 ft 520 kts 138°
2026-05-03 21:06 38.85809 22.77258 37700 ft 524 kts 137°
2026-05-03 21:06 38.83013 22.80289 37244 ft 527 kts 138°
2026-05-03 21:06 38.80208 22.83326 36752 ft 529 kts 138°
2026-05-03 21:07 38.77421 22.86340 36272 ft 532 kts 138°
2026-05-03 21:07 38.74585 22.89402 35804 ft 534 kts 138°
2026-05-03 21:07 38.71732 22.92481 35242 ft 537 kts 138°
2026-05-03 21:07 38.68863 22.95573 34386 ft 540 kts 138°
2026-05-03 21:08 38.65965 22.98692 33428 ft 542 kts 137°
2026-05-03 21:08 38.63069 23.01806 32456 ft 544 kts 137°
2026-05-03 21:08 38.60164 23.04926 31466 ft 546 kts 137°
2026-05-03 21:08 38.57281 23.08019 30562 ft 547 kts 137°
2026-05-03 21:09 38.54343 23.11166 29890 ft 541 kts 137°
2026-05-03 21:09 38.51496 23.14213 29076 ft 536 kts 137°
2026-05-03 21:09 38.48651 23.17255 28342 ft 530 kts 137°
2026-05-03 21:09 38.45840 23.20258 27657 ft 524 kts 137°
2026-05-03 21:10 38.43056 23.23228 26940 ft 519 kts 137°
2026-05-03 21:10 38.40300 23.26167 26242 ft 513 kts 137°
2026-05-03 21:10 38.37570 23.29075 25539 ft 507 kts 137°
2026-05-03 21:10 38.34877 23.31941 24866 ft 502 kts 137°
2026-05-03 21:11 38.32202 23.34786 24192 ft 497 kts 138°
2026-05-03 21:11 38.29594 23.37556 23484 ft 492 kts 138°
2026-05-03 21:11 38.26970 23.40340 22760 ft 485 kts 138°
2026-05-03 21:11 38.24394 23.43072 22069 ft 479 kts 138°
2026-05-03 21:12 38.21854 23.45764 21484 ft 471 kts 139°
2026-05-03 21:12 38.19346 23.48418 20764 ft 466 kts 139°
2026-05-03 21:12 38.16870 23.51039 20112 ft 459 kts 138°
2026-05-03 21:12 38.14526 23.53770 19439 ft 454 kts 134°
2026-05-03 21:13 38.12807 23.55988 18913 ft 451 kts 132°
2026-05-03 21:13 38.10687 23.58839 18354 ft 439 kts 131°
2026-05-03 21:13 38.08650 23.61596 17474 ft 418 kts 131°
2026-05-03 21:13 38.06683 23.64231 16842 ft 406 kts 131°
2026-05-03 21:14 38.04738 23.66809 16142 ft 406 kts 132°
2026-05-03 21:14 38.02767 23.69395 15493 ft 405 kts 132°
2026-05-03 21:14 38.00803 23.71955 14893 ft 403 kts 132°
2026-05-03 21:14 37.98846 23.74494 14310 ft 401 kts 132°
2026-05-03 21:15 37.97125 23.76723 13794 ft 399 kts 132°
2026-05-03 21:15 37.95187 23.79230 13153 ft 396 kts 133°
2026-05-03 21:15 37.93277 23.81698 12858 ft 385 kts 132°
2026-05-03 21:15 37.91461 23.84040 12691 ft 353 kts 132°
2026-05-03 21:16 37.89834 23.86134 12323 ft 324 kts 132°
2026-05-03 21:16 37.88297 23.88114 11814 ft 307 kts 132°
2026-05-03 21:16 37.86828 23.90009 11286 ft 298 kts 132°
2026-05-03 21:16 37.85382 23.91876 10790 ft 298 kts 132°
2026-05-03 21:17 37.83907 23.93782 10346 ft 306 kts 133°
2026-05-03 21:17 37.82916 23.95060 10021 ft 308 kts 133°
2026-05-03 21:17 37.80914 23.97635 9318 ft 305 kts 132°
2026-05-03 21:17 37.79463 23.99496 8746 ft 289 kts 132°
2026-05-03 21:18 37.78090 24.01258 8253 ft 274 kts 131°
2026-05-03 21:18 37.76786 24.02930 7957 ft 263 kts 131°
2026-05-03 21:18 37.75506 24.04573 7680 ft 260 kts 130°
2026-05-03 21:18 37.74244 24.06198 7446 ft 257 kts 130°
2026-05-03 21:19 37.72987 24.07810 7175 ft 257 kts 129°
2026-05-03 21:19 37.71732 24.09418 6919 ft 256 kts 129°
2026-05-03 21:19 37.70481 24.11021 6664 ft 255 kts 129°
2026-05-03 21:19 37.69083 24.12336 6381 ft 261 kts 158°
2026-05-03 21:20 37.67274 24.12478 6139 ft 264 kts 198°
2026-05-03 21:20 37.65753 24.11334 5907 ft 250 kts 233°
2026-05-03 21:20 37.64911 24.09511 5700 ft 234 kts 261°
2026-05-03 21:20 37.64652 24.07557 5573 ft 225 kts 277°
2026-05-03 21:21 37.64913 24.05683 5439 ft 215 kts 296°
2026-05-03 21:21 37.65448 24.03905 5345 ft 220 kts 298°
2026-05-03 21:21 37.66022 24.02110 5147 ft 218 kts 299°
2026-05-03 21:21 37.66580 24.00358 5003 ft 210 kts 299°
2026-05-03 21:22 37.67112 23.98679 4837 ft 201 kts 300°
2026-05-03 21:22 37.67607 23.97101 4651 ft 189 kts 301°
2026-05-03 21:22 37.68083 23.95580 4484 ft 187 kts 301°
2026-05-03 21:22 37.68514 23.94141 4379 ft 185 kts 300°
2026-05-03 21:23 37.68990 23.92635 4279 ft 184 kts 300°
2026-05-03 21:23 37.69461 23.91138 4233 ft 181 kts 299°
2026-05-03 21:23 37.69921 23.89664 4124 ft 183 kts 298°
2026-05-03 21:23 37.70384 23.88167 4077 ft 182 kts 298°
2026-05-03 21:24 37.70846 23.86667 3941 ft 183 kts 298°
2026-05-03 21:24 37.71300 23.85184 3781 ft 179 kts 298°
2026-05-03 21:24 37.71747 23.83725 3689 ft 177 kts 298°
2026-05-03 21:24 37.72195 23.82268 3639 ft 179 kts 298°
2026-05-03 21:25 37.72688 23.80837 3546 ft 173 kts 311°
2026-05-03 21:25 37.73556 23.79868 3479 ft 161 kts 334°
2026-05-03 21:25 37.74545 23.79360 3353 ft 147 kts 345°
2026-05-03 21:25 37.75505 23.79019 3236 ft 145 kts
2026-05-03 21:26 37.76436 23.79484 3155 ft 147 kts 30°
2026-05-03 21:26 37.77301 23.80173 3140 ft 145 kts 28°
2026-05-03 21:26 37.78143 23.80883 3080 ft 145 kts 30°
2026-05-03 21:26 37.78959 23.81619 3034 ft 143 kts 31°
2026-05-03 21:27 37.79769 23.82370 3040 ft 145 kts 31°
2026-05-03 21:27 37.80573 23.83127 3037 ft 146 kts 32°
2026-05-03 21:27 37.81373 23.83888 3018 ft 136 kts 32°
2026-05-03 21:27 37.82101 23.84580 2888 ft 126 kts 32°
2026-05-03 21:28 37.82781 23.85225 2773 ft 120 kts 32°
2026-05-03 21:28 37.83423 23.85837 2601 ft 111 kts 30°
2026-05-03 21:28 37.84059 23.86438 2448 ft 117 kts 31°
2026-05-03 21:28 37.84707 23.87054 2288 ft 118 kts 31°
2026-05-03 21:29 37.85366 23.87681 2128 ft 118 kts 31°
2026-05-03 21:29 37.86028 23.88310 1945 ft 120 kts 32°
2026-05-03 21:29 37.86698 23.88956 1774 ft 121 kts 33°
2026-05-03 21:29 37.87364 23.89617 1685 ft 123 kts 32°
2026-05-03 21:30 37.88060 23.90281 1508 ft 127 kts 34°
2026-05-03 21:30 37.88754 23.90933 1355 ft 129 kts 33°
2026-05-03 21:30 37.89484 23.91610 1169 ft 130 kts 32°
2026-05-03 21:30 37.90201 23.92295 936 ft 129 kts 33°
2026-05-03 21:31 37.90925 23.92986 768 ft 130 kts 32°
2026-05-03 21:31 37.91635 23.93658 573 ft 126 kts 31°
2026-05-03 21:31 37.92334 23.94324 404 ft 125 kts 30°
2026-05-03 21:31 37.93044 23.94983 314 ft 125 kts 32°
2026-05-03 21:32 37.93675 23.95580 284 ft 95 kts 37°
2026-05-03 21:32 37.94019 23.95905 290 ft 41 kts 32°
2026-05-03 21:32 37.94257 23.96009 299 ft 11 kts
2026-05-03 21:32 37.94324 23.95981 304 ft 11 kts 298°
2026-05-03 21:33 37.94298 23.95899 305 ft 11 kts 219°
2026-05-03 21:33 37.94237 23.95839 304 ft 11 kts 218°
2026-05-03 21:33 37.94176 23.95779 306 ft 11 kts 218°
2026-05-03 21:33 37.94113 23.95719 305 ft 11 kts 216°
2026-05-03 21:34 37.94048 23.95658 305 ft 12 kts 216°
2026-05-03 21:34 37.93976 23.95591 305 ft 13 kts 216°
2026-05-03 21:34 37.93895 23.95515 305 ft 15 kts 216°
2026-05-03 21:34 37.93810 23.95435 304 ft 15 kts 217°
2026-05-03 21:35 37.93727 23.95355 305 ft 15 kts 217°
2026-05-03 21:35 37.93641 23.95273 306 ft 15 kts 217°
2026-05-03 21:35 37.93558 23.95192 304 ft 15 kts 217°
2026-05-03 21:35 37.93474 23.95111 307 ft 15 kts 215°
2026-05-03 21:36 37.93394 23.95026 307 ft 15 kts 247°
2026-05-03 21:36 37.93426 23.94902 308 ft 15 kts 301°
2026-05-03 21:36 37.93413 23.94786 309 ft 15 kts 222°
2026-05-03 21:36 37.93330 23.94703 306 ft 15 kts 217°
2026-05-03 21:37 37.93265 23.94641 306 ft 4 kts 220°
2026-05-03 21:37 37.93256 23.94610 309 ft 4 kts 269°
2026-05-03 21:37 37.93266 23.94578 306 ft 4 kts 298°
2026-05-03 21:37 37.93279 23.94553 308 ft 0 kts 304°
2026-05-03 21:38 37.93280 23.94550 308 ft 0 kts 305°